Regional Weather Roundup
Issued by NWS

Home | Current Version | Previous Version | Graphics & Text | Print | Product List | Glossary On
Versions: 1 2 3 4 5 6 7 8 9 10 11 12 13 14 15 16 17 18 19 20 21 22 23 24 25 26 27 28 29 30 31 32 33 34 35 36 37 38 39 40 41 42 43 44 45 46 47 48 49 50
000
ASUS43 KDMX 030307
RWRIA

WEATHER ROUNDUP FOR IOWA
NATIONAL WEATHER SERVICE DES MOINES IA
1000 PM CDT SAT MAY 02 2015

NOTE: "FAIR" INDICATES FEW OR NO CLOUDS BELOW 12,000 FEET WITH NO
SIGNIFICANT WEATHER AND/OR OBSTRUCTIONS TO VISIBILITY.

* - THESE STATIONS ARE NOT NWS STATIONS...THUS NOT UNDER NWS
QUALITY CONTROL.  THEY ALSO DO NOT REPORT WEATHER SUCH
AS PRECIPITATION OR FOG.

IAZ001>003-012>014-020>022-031>034-043>046-030400-
   NORTHWEST IOWA

CITY           SKY/WX    TMP DP  RH WIND       PRES   REMARKS
CARROLL *      MOCLDY    59  54  82 SE8       29.82F
CHEROKEE *     MOCLDY    64  54  68 S14       29.80R
DENISON *      CLOUDY    63  57  82 SE17G23   29.77F
LE MARS *      PTCLDY    66  55  68 SE12G20   29.77R
ORANGE CITY *  CLEAR     64  54  68 S10       29.77R
SHELDON *      PTCLDY    64  57  77 SE12G18   29.77R
SIOUX CITY     CLEAR     65  54  67 SE13      29.74S
SPENCER        CLEAR     64  54  69 S15       29.80R
STORM LAKE *   MOCLDY    61  52  72 SE15      29.82R
$$

IAZ055>058-069>071-079>083-090>094-030400-
   SOUTHWEST IOWA

CITY           SKY/WX    TMP DP  RH WIND       PRES   REMARKS
ATLANTIC *     CLEAR     63  55  77 S12G18    29.83R
AUDUBON *      PTCLDY    59  54  82 S9        29.84S
CLARINDA *     CLEAR     64  55  72 S9G15     29.87R
COUNCIL BLFS * CLEAR     64  59  82 S20G25    29.78F
CRESTON *      CLEAR     57  55  94 S13       29.88R
HARLAN  *      CLEAR     63  59  88 S13       29.84S
LAMONI         CLEAR     59  55  87 S9        29.90S
RED OAK *      CLEAR     64  57  77 SE17      29.83R
SHENANDOAH *   CLEAR     66  55  68 SE15      29.83R
$$

IAZ047>049-059>061-072>074-084-030400-
   CENTRAL IOWA

CITY           SKY/WX    TMP DP  RH WIND       PRES   REMARKS
AMES           MOCLDY    60  53  77 S12       29.87R
ANKENY *       PTCLDY    61  54  77 S10       29.87F
CHARITON *     PTCLDY    57  54  88 S12       29.90S
DES MOINES     PTCLDY    61  53  75 SE12      29.88S
GRINNELL*      CLEAR     57  54  88 SE13      29.90F
KNOXVILLE *    CLOUDY    59  52  77 SE9       29.89S
MARSHALLTOWN   CLEAR     59  52  77 S12       29.88S
PELLA *        CLEAR     57  57 100 SE9       29.91F
PERRY *          N/A     59  54  82 SE12      29.85S
$$

IAZ004>006-015-016-023>025-035-036-030400-
   NORTH CENTRAL IOWA

CITY           SKY/WX    TMP DP  RH WIND       PRES   REMARKS
ALGONA *       CLEAR     61  52  72 S15       29.83S
CLARION *      CLEAR     61  52  72 S14       29.86S
ESTHERVILLE    CLEAR     62  53  72 S17       29.80R
FORT DODGE *   CLEAR     61  52  72 S9        29.86S
MASON CITY     CLEAR     61  51  70 S10       29.87R
FOREST CITY *  CLEAR     59  50  72 S13       29.85S
IOWA FALLS *     N/A     59  50  72 S9        29.88S
$$

IAZ007>011-017>019-026>030-037>042-050>054-066-030400-
   NORTHEAST IOWA

CITY           SKY/WX    TMP DP  RH WIND       PRES   REMARKS
CEDAR RAPIDS     N/A     63  54  72 S10       29.93S
CHARLES CITY * CLEAR     61  52  72 S12       29.89R
CLINTON *        N/A     63  48  59 S6        29.97S
DECORAH *      CLEAR     63  50  63 S9G15     29.88S
DUBUQUE        CLEAR     57  49  74 S9        29.94R
MONTICELLO *   PTCLDY    61  52  72 S8        29.94S
OELWEIN *      PTCLDY    59  50  72 S12       29.91S
WATERLOO       CLOUDY    63  52  67 S12       29.89S
$$

IAZ064-065-067-068-078-030400-
   EAST CENTRAL IOWA

CITY           SKY/WX    TMP DP  RH WIND       PRES   REMARKS
DAVENPORT      CLOUDY    65  46  50 SW10      29.96R
IOWA CITY      CLOUDY    62  53  72 S9        29.95S
MT. PLEASANT * CLOUDY    57  54  88 N6        29.97S
MUSCATINE *    MOCLDY    63  52  67 S9        29.96S
QUAD CITIES    CLOUDY    65  46  50 S6        29.95S
$$

IAZ062-063-075>077-085>089-095>099-030400-
   SOUTHEAST IOWA

CITY           SKY/WX    TMP DP  RH WIND       PRES   REMARKS
BURLINGTON     MOCLDY    59  49  69 E3        29.97R
FAIRFIELD *    CLEAR     54  52  94 E8        29.95F
FORT MADISON * MOCLDY    61  48  63 S8        29.97R
KEOKUK *       CLOUDY    61  52  72 S6        29.94F
OSKALOOSA *    MOCLDY    57  54  88 SE12      29.93S
CENTERVILLE *  PTCLDY    55  54  94 SE8       29.94S
OTTUMWA        CLOUDY    57  55  93 SE9       29.93S
WASHINGTON *   LGT RAIN  59  59 100 S13       29.94F
$$

ABBREVIATIONS USED IN REMARKS
   TC - TEMPERATURES IN CELSIUS
  WCI - WIND CHILL INDEX
   HX - HEAT INDEX
  VSB - VISIBILITY
$$




USA.gov is the U.S. government's official web portal to all federal, state and local government web resources and services.